Вернуться в каталог

STARLINK-5470

АктивенСвязьVLEO
NORAD 54776·PAYLOAD·🇺🇸 United States

Запущен Dec 17, 2022 с Cape Canaveral Space Force Station

Loading…

Ближайшие Пролёты (ближайшие 24 часа)

TLE

СвежийSource: CelesTrak SupGP

Эпоха: Sep 15, 2026, 00:26 UTC

1 54776C 22175U   26258.01854167  .00782550  00000+0  53428-2 0  2589
2 54776  53.1591 259.1796 0001245  97.0411 314.4652 15.73752972    12

Отслеживайте STARLINK-5470 в реальном времени с AllMySat

Download on the App Store